Location: Santa Clara
(37.3540°N, 121.9540°W)
Time: 01:48:01
(UTC-07:00)

Hubble Space Telescope - Pass Details

Date: 27 May 2024
Orbit: 511 x 514 km, 28.5° (Epoch: 13 June)

Event Time Altitude Azimuth Distance (km) Brightness Sun altitude
Rises 21:56:26 0° 242° (WSW) 2,609 4.5 -16.2°
Reaches altitude 10° 21:59:01 10° 226° (SW) 1,723 3.4 -16.6°
Enters shadow 22:01:23 21° 191° (SSW) 1,197 2.2 -16.9°
